De Queen, AR

2:48 PM CDT on October 18, 2019 (GMT -0500)
Helms Sevier County

Weather History for KDEQ - August, 2019

Change the Weather History Date:

Thursday, August 1, 2019

  Actual Average Record
Temperature  
Mean Temperature 82 °F 81 °F  
Max Temperature 90 °F 93 °F 108 °F (1986)
Min Temperature 73 °F 70 °F 57 °F (1971)
Degree Days  
Heating Degree Days 0 0  
Month to date heating degree days 0 0  
Since 1 June heating degree days 0 0  
Since 1 July heating degree days 0 0  
Cooling Degree Days 16 16  
Month to date cooling degree days 17 16  
Year to date cooling degree days 1154 1108  
Since 1 June cooling degree days 881 891  
Growing Degree Days 32 (Base 50)    
Moisture  
Dew Point 76 °F    
Average Humidity 87    
Maximum Humidity 100    
Minimum Humidity 59    
Precipitation  
Precipitation 0.00 in 0.07 in 2.47 in (2009)
Month to date precipitation 0.00 0.07  
Year to date precipitation 37.08 29.49  
Snow  
Snow 0.00 in - - ()
Month to date snowfall 0.0  
Since 1 June snowfall 0.0  
Since 1 July snowfall 0.0  
Snow Depth 0.00 in    
Sea Level Pressure  
Sea Level Pressure 30.02 in    
Wind  
Wind Speed 1 mph ()    
Max Wind Speed 8 mph    
Max Gust Speed 11 mph    
Visibility 7.0 miles    
Events      
T = Trace of Precipitation, MM = Missing Value Source: Averaged Metar Reports

Daily Weather History Graph

Daily Weather History Graph

Search for Another Location

Airport or City:

Astronomy

Aug. 01, 2019 Rise Set
Actual Time 6:28 AM CDT 8:18 PM CDT
Civil Twilight 6:01 AM CDT 8:45 PM CDT
Nautical Twilight 5:28 AM CDT 9:19 PM CDT
Astronomical Twilight 4:52 AM CDT 9:54 PM CDT
Moon 6:55 AM CDT (8/1) 9:07 PM CDT (8/1)
Length of Visible Light 14h 44m
Length of Day
13h 49m
New Moon, 1% of the Moon is Illuminated
Aug 1
New Moon
Aug 7
First Quarter
Aug 15
Full
Aug 23
Last Quarter
Aug 30
New

Hourly Weather History & Observations

Time (CDT) Temp. Heat Index Dew Point Humidity Pressure Visibility Wind Dir Wind Speed Gust Speed Precip Events Conditions
12:14 AM 75.9 °F - 75.9 °F 100% 30.02 in 1.8 mi Calm Calm - N/A   Clear
12:32 AM 75.9 °F - 75.9 °F 100% 30.02 in 2.0 mi Calm Calm - N/A   Clear
12:46 AM 75.9 °F - 75.9 °F 100% 30.02 in 4.0 mi Calm Calm - N/A   Clear
12:53 AM 75.0 °F - 75.0 °F 100% 30.00 in 4.0 mi Calm Calm - N/A   Clear
1:08 AM 75.0 °F - 75.0 °F 100% 30.03 in 1.8 mi NE 3.5 mph - N/A   Clear
1:17 AM 75.0 °F - 75.0 °F 100% 30.03 in 3.0 mi ENE 3.5 mph - N/A   Clear
1:53 AM 75.0 °F - 75.0 °F 100% 30.00 in 4.0 mi Calm Calm - N/A   Clear
2:28 AM 73.9 °F - 73.9 °F 100% 30.01 in 2.0 mi Calm Calm - N/A   Clear
2:39 AM 73.9 °F - 73.9 °F 100% 30.01 in 1.0 mi Calm Calm - N/A   Clear
2:53 AM 73.9 °F - 73.9 °F 100% 30.01 in 3.0 mi NE 3.5 mph - N/A   Clear
3:53 AM 73.9 °F - 73.9 °F 100% 29.99 in 8.0 mi Calm Calm - N/A   Clear
4:53 AM 73.9 °F - 73.9 °F 100% 30.00 in 7.0 mi Calm Calm - N/A   Clear
5:53 AM 75.0 °F - 75.0 °F 100% 30.02 in 9.0 mi Calm Calm - N/A   Clear
6:53 AM 73.9 °F - 73.9 °F 100% 30.03 in 6.0 mi ENE 3.5 mph - N/A   Clear
7:53 AM 77.0 °F - 75.9 °F 96% 30.05 in 8.0 mi Calm Calm - N/A   Clear
8:53 AM 81.0 °F 86.7 °F 75.0 °F 82% 30.07 in 10.0 mi ENE 4.6 mph - N/A   Clear
9:53 AM 82.0 °F 88.6 °F 75.0 °F 79% 30.07 in 10.0 mi Calm Calm - N/A   Clear
10:53 AM 86.0 °F 96.0 °F 75.9 °F 72% 30.09 in 10.0 mi East 4.6 mph - N/A   Clear
11:53 AM 87.1 °F 97.3 °F 75.9 °F 69% 30.08 in 10.0 mi Calm Calm - N/A   Clear
12:21 PM 88.0 °F 98.5 °F 75.9 °F 67% 30.10 in 10.0 mi Calm Calm - N/A   Mostly Cloudy
12:38 PM 89.1 °F 100.2 °F 75.9 °F 65% 30.09 in 10.0 mi Calm Calm - N/A   Mostly Cloudy
12:53 PM 88.0 °F 97.5 °F 75.0 °F 65% 30.07 in 10.0 mi Calm Calm - N/A   Mostly Cloudy
1:53 PM 89.1 °F 98.0 °F 73.9 °F 61% 30.04 in 10.0 mi Variable 4.6 mph - N/A   Partly Cloudy
2:53 PM 89.1 °F 100.2 °F 75.9 °F 65% 30.02 in 10.0 mi South 4.6 mph - N/A   Partly Cloudy
3:53 PM 87.1 °F 98.8 °F 77.0 °F 72% 30.01 in 10.0 mi ESE 6.9 mph - N/A   Scattered Clouds
4:53 PM 88.0 °F 100.2 °F 77.0 °F 70% 29.99 in 10.0 mi East 5.8 mph - N/A   Clear
5:53 PM 90.0 °F 101.3 °F 75.9 °F 63% 29.98 in 10.0 mi Calm Calm - N/A   Clear
6:53 PM 88.0 °F 100.2 °F 77.0 °F 70% 29.96 in 10.0 mi East 4.6 mph - N/A   Clear
7:53 PM 84.9 °F 96.6 °F 78.1 °F 80% 29.96 in 10.0 mi Calm Calm - N/A   Clear
8:53 PM 80.1 °F 86.7 °F 79.0 °F 96% 29.96 in 8.0 mi Calm Calm - N/A   Clear
9:53 PM 78.1 °F - 78.1 °F 100% 29.99 in 6.0 mi Calm Calm - N/A   Clear
10:53 PM 78.1 °F - 78.1 °F 100% 30.00 in 5.0 mi Calm Calm - N/A   Clear
11:53 PM 78.1 °F - 77.0 °F 96% 30.01 in 8.0 mi Calm Calm - N/A   Clear